パンスターズ彗星

P/2017 G2 ( PanSTARRS )

English version
Home page
Updated on October 8, 2017

---------------------------------------------------------------------

・ プロフィール

発見日 2017年4月3日
発見光度 20.4等
発見者 Pan-STARRS 1 telescope (Haleakala)

・ 写真集

・ 軌道要素

Epoch 2017 June 16.0 TT = JDT 2457920.5
T 2017 June 13.91267 TT                                 MPCW
q   2.8462374            (2000.0)            P               Q
n   0.04244513     Peri.  105.93956     -0.68296389     +0.01122386
a   8.1392455      Node    79.81859     -0.42728063     -0.81710958
e   0.6503070      Incl.   47.90642     +0.59244543     -0.57637310
P  23.22
From 156 observations 2017 Mar. 18-July 26, mean residual 0".4.

・ 光度変化

        m1 = -2.0 + 5 logΔ + 40 log r(t - 70)

---------------------------------------------------------------------

軌道要素はM.P.E.C. 2017-T14に掲載されたものです。
光度グラフはComet for Windowsで作成したものです。

---------------------------------------------------------------------

Copyright(C) Seiichi Yoshida (comet@aerith.net). All rights reserved.